Location: Newark
(34.1333°N, 7.9667°W)
Time: 15:11:09
(UTC+00:00)

Vanguard 2 - Visible Passes

Search period start: 22 June 2021 00:00
Search period end: 02 July 2021 00:00
Orbit: 552 x 2937 km, 32.9° (Epoch: 22 June)

Date Brightness Start Highest point End Pass type
(mag) Time Alt. Az. Time Alt. Az. Time Alt. Az.
22 Jun 8.6 20:36:22 10° W 20:47:24 74° SSW 20:53:06 14° ESE visible
22 Jun 9.2 22:49:19 10° W 22:54:29 26° SW 22:54:29 26° SW visible
23 Jun 8.7 20:54:28 10° W 21:05:05 64° SSW 21:09:45 20° SE visible
23 Jun 9.8 23:07:57 10° W 23:11:09 17° WSW 23:11:09 17° WSW visible
24 Jun 8.8 21:12:35 10° W 21:22:41 52° SSW 21:26:25 26° SE visible
24 Jun 10.3 23:27:37 10° WSW 23:27:49 10° WSW 23:27:49 10° WSW visible
25 Jun 9.0 21:30:47 10° W 21:40:08 41° SSW 21:43:05 28° SSE visible
26 Jun 9.3 21:49:08 10° W 21:57:26 30° SW 21:59:45 25° S visible
27 Jun 9.7 22:07:50 10° W 22:14:36 22° SW 22:16:27 20° SSW visible
28 Jun 9.5 20:11:31 10° W 20:24:07 54° SSW 20:31:42 10° SE visible
28 Jun 10.1 22:27:18 10° WSW 22:31:40 14° SW 22:33:08 14° SW visible
29 Jun 9.7 20:29:46 10° W 20:41:33 43° SW 20:48:28 12° SSE visible
30 Jun 10.0 20:48:12 10° W 20:58:49 33° SW 21:05:12 13° SSE visible
01 Jul 10.2 21:06:57 10° W 21:15:57 24° SW 21:21:57 11° S visible
